Find Starlink 3291

NORAD ID: 50175 Int'l Des: 2021-125 Owner: SPXS Country: US Constellation: starlink operational
LEOCIRCULAR

Live Position

Loading 3D Globe...

About Starlink 3291

Description loading...

Upcoming Passes

Passes for default location (London). Set your location on the main map for personalized predictions.

Altitude History

Loading altitude history...

Two-Line Element Set

1 50175U 21125V 26126.86519948 -.00001158 00000-0 -54710-4 0 9994
2 50175 53.2202 347.9598 0001383 86.6616 273.4535 15.08833610245383
Epoch: May 6, 2026 • Age: 5 hours

Current Status

Altitude 545.4 km
Velocity 7.60 km/s
Sub-Earth Point 53.23°N, 177.46°E
Launch Date Dec 18, 2021
Age 4.3 years
Type internet

Technical Details

Classification Payload
Mass 290.00 kg
Dry Mass 270.00 kg
Total Mass 290.00 kg
Length 0.20 m
Diameter 2.80 m
Span 9.00 m
Shape Box + pan
Manufacturer SPXS
Bus Type Starlink
Phase Status In Orbit
Owner/State SPXS/US

Most Searched